#timestamp,LO_Frequency,Hit,StdDev 
1505116815.8,286046999.3,N,1.8
1505116835.6,286046999.4,N,1.8
1505116855.5,286682704.5,Y,0.0
1505116875.3,286047000.9,P,1.5
1505116895.1,286047000.6,N,1.4
1505116915.9,286047000.5,N,1.2
1505116935.7,286046999.9,N,1.1
1505116955.5,286046999.8,N,1.0
1505116975.4,286047002.7,N,1.4
1505116995.2,286046999.9,N,1.3
1505117015.1,286047000.6,N,1.2
1505117016.0,286047000.6,N,1.2
1505117035.8,286047002.8,N,1.3
1505117055.6,286047001.8,N,1.3
1505117075.5,286047002.6,N,1.3
1505117095.3,286047001.6,N,1.3
1505117115.2,286046999.8,N,1.3
1505117135.0,286047000.6,N,1.3
1505117135.9,286047000.6,N,1.2
1505117155.8,286046999.7,N,1.2
1505117175.6,286047000.4,N,1.2
1505117195.4,286047000.4,N,1.2
1505117215.3,286047000.5,N,1.1
1505117235.1,286047000.1,N,1.1
1505117255.8,286047001.9,N,1.1
1505117275.7,286047000.0,N,1.1
1505117295.5,286047000.7,N,1.1
1505117315.4,286047001.0,N,1.1
1505117335.2,286047000.5,N,1.0
1505117355.0,286047000.3,N,1.0
1505117356.0,286047000.3,N,1.0
1505117375.8,286047000.7,N,1.0
1505117395.6,286047000.8,N,0.8
1505117415.5,286047001.0,N,0.8
1505117435.3,286047000.9,N,0.8
1505117455.1,286047000.5,N,0.8
1505117475.9,286047000.4,N,0.8
1505117495.7,286047000.6,N,0.8
1505117515.6,286047000.5,N,0.7
1505117535.4,286047000.7,N,0.7
1505117555.3,286047002.8,Y,0.0
1505117575.1,286047000.1,P,0.3
1505117595.8,286047000.0,N,0.3
1505117615.7,286047000.6,N,0.3
1505117635.5,286047000.7,N,0.3
1505117655.4,286046998.2,Y,0.0
1505117675.2,286046998.1,P,1.2
1505117695.0,286047000.7,N,1.2
1505117695.9,286047000.7,N,1.1
1505117715.8,286047000.7,N,1.0
1505117735.6,286047000.7,N,1.0
1505117755.5,286047000.6,N,0.9
1505117775.3,286046999.9,N,0.8
1505117795.1,286046999.9,N,0.8
1505117815.9,286046999.9,N,0.8
1505117835.7,286046999.7,N,0.7
1505117855.6,286047000.2,N,0.7
1505117875.4,286047002.5,Y,0.0
1505117895.2,286047000.2,P,0.0
1505117915.1,286047002.4,P,1.1
1505117916.0,286047002.4,N,1.1
1505117935.8,286047000.2,N,1.1
1505117955.7,286047002.6,N,1.1
1505117975.5,286047002.4,N,1.1
1505117995.3,286047001.6,N,1.1
1505118015.2,286047002.1,N,1.0
1505118035.0,286047001.7,N,1.0
1505118035.9,286047001.7,N,0.9
1505118055.8,286047002.0,N,0.9
1505118075.6,286047002.5,N,0.9
1505118095.4,286047001.6,N,0.9
1505118115.3,286047004.3,Y,0.0
1505118135.1,286047000.3,P,0.7
1505118155.9,286047002.8,P,1.0
1505118175.7,286047000.1,N,1.1
1505118195.6,286047000.1,N,1.1
1505118215.4,286047000.8,N,1.0
1505118235.2,286047001.0,N,0.9
1505118255.1,286047002.6,N,1.0
1505118256.0,286047002.6,N,1.1
1505118275.8,286047002.2,N,1.0
1505118295.7,286047000.2,N,1.0
1505118315.5,286047002.3,N,1.0
1505118335.3,286047000.0,N,1.1
1505118355.2,286047002.8,N,1.1
1505118375.0,286046999.7,N,1.1
1505118375.9,286046999.7,N,1.2
1505118395.8,286047002.3,N,1.2
1505118415.6,286046999.7,N,1.2
1505118435.4,286047002.1,N,1.2
1505118455.3,286047002.5,N,1.2
1505118475.1,286047002.8,N,1.2
1505118495.9,286047002.8,N,1.2
1505118515.7,286047002.7,N,1.2
1505118535.5,286047001.5,N,1.2
1505118555.4,286047001.9,N,1.2
1505118575.2,286047001.6,N,1.1
1505118595.0,286047001.9,N,1.1
1505118596.0,286047001.9,N,1.1
1505118615.8,286047003.9,Y,0.0
1505118635.6,286047002.1,P,0.3
1505118655.5,286047000.1,N,0.8
1505118675.3,286047000.0,N,0.9
1505118695.2,286047001.6,N,0.9
1505118715.9,286047002.8,Y,0.0
1505118735.7,286047000.2,P,0.4
1505118755.6,286047000.4,N,0.4
1505118775.4,286046999.8,N,0.5
1505118795.3,286047000.9,N,0.5
1505118815.1,286047000.6,N,0.4
1505118816.0,286047000.6,N,0.4
1505118835.8,286047000.5,N,0.4
1505118855.7,286047000.0,N,0.4
1505118875.5,286046999.9,N,0.4
1505118895.4,286046999.9,N,0.4
1505118915.2,286047001.0,N,0.4
1505118935.0,286047000.1,N,0.4
1505118935.9,286047000.1,N,0.4
1505118955.8,286047000.0,N,0.4
1505118975.6,286047002.2,Y,0.0
1505118995.5,286047002.8,P,1.2
1505119015.3,286047001.0,N,1.0
1505119035.1,286047000.3,N,1.0
1505119055.9,286046999.9,N,1.0
1505119075.7,286047001.1,N,0.9
1505119095.6,286047000.9,N,0.9
1505119115.4,286046999.0,N,1.0
1505119135.2,286046998.3,N,1.2
1505119155.1,286046998.5,N,1.3
1505119156.0,286046998.5,N,1.3
1505119175.8,286047001.2,N,1.3
1505119195.7,286047001.0,N,1.3
1505119215.5,286047000.0,N,1.2
1505119235.3,286046999.9,N,1.2
1505119255.2,286047000.3,N,1.2
1505119275.0,286047000.2,N,1.1
1505119275.9,286047000.2,N,1.1
1505119295.8,286046999.9,N,1.1
1505119315.6,286047002.3,N,1.1
1505119335.4,286047002.8,N,1.2
1505119355.3,286046999.8,N,1.2
1505119375.1,286046999.8,N,1.2
1505119395.9,286046999.8,N,1.2
1505119415.7,286047000.2,N,1.1
1505119435.5,286047000.1,N,1.1
1505119455.4,286047002.8,N,1.2
1505119475.2,286047002.3,N,1.2
1505119495.1,286047002.8,N,1.3
1505119496.0,286047002.8,N,1.3
1505119515.8,286047001.7,N,1.3
1505119535.6,286047001.8,N,1.3
1505119555.5,286047002.3,N,1.3
1505119575.3,286047004.3,Y,0.0
1505119595.2,286047002.0,P,0.7
1505119615.0,286047001.6,N,0.6
1505119615.9,286047001.6,N,0.5
1505119635.7,286046999.7,N,0.8
1505119655.6,286047000.2,N,0.8
1505119675.4,286047002.5,N,0.9
1505119695.3,286047000.1,N,0.9
1505119715.1,286047002.3,N,1.0
1505119735.8,286047002.3,N,1.0
1505119755.7,286047002.7,N,1.0
1505119775.5,286047002.8,N,1.0
1505119795.4,286047001.6,N,1.0
1505119815.2,286047001.7,N,1.0
1505119835.0,286047001.6,N,0.9
1505119835.9,286047001.6,N,0.9
1505119855.8,286047004.4,Y,0.0
1505119875.6,286047000.2,P,0.7
1505119895.5,286047000.2,N,0.6
1505119915.3,286047002.3,P,0.9
1505119935.1,286046999.7,N,1.0
1505119955.9,286047000.0,N,0.9
1505119975.7,286047002.8,N,1.1
1505119995.6,286047002.1,N,1.1
1505120015.4,286047002.6,N,1.2
1505120035.2,286047002.0,N,1.1
1505120055.1,286047002.7,N,1.1
1505120056.0,286047002.7,N,1.1
1505120075.8,286047002.8,N,1.2
1505120095.7,286046999.9,N,1.2
1505120115.5,286047000.0,N,1.2
1505120135.3,286047000.7,N,1.2
1505120155.2,286047000.9,N,1.2
1505120175.0,286047000.7,N,1.1
1505120175.9,286047000.7,N,1.1
1505120195.8,286047000.8,N,1.1
1505120215.6,286047002.7,N,1.1
1505120235.4,286047000.2,N,1.1
1505120255.3,286046999.7,N,1.1
1505120275.1,286047002.5,N,1.1
1505120295.9,286047002.8,N,1.2
1505120315.7,286047002.8,N,1.2
1505120335.5,286047000.5,N,1.2
1505120355.4,286047000.0,N,1.2
1505120375.2,286047000.1,N,1.2
1505120395.1,286047000.7,N,1.2
1505120396.0,286047000.7,N,1.2
